www.pogodaiklimat.ru

Погода и климат >> Архив погоды >> Бангладеш >> Саткхира


ПОГОДА в Саткхире

  • Прогноз погоды в Саткхире
  • Монитор погоды в Саткхире

АРХИВ ПОГОДЫ в Саткхире

Время (UTC), дата Ветер
(напр.,м/с)
 
Видим.   Явления Облачность Т
(С)
Тd
(С)
f
(%)
Тe
(С)
Тes
(С)
Комфортность P
(гПа)
Po
(гПа)
Тmin
(С)
Tmax
(С)
R
(мм)
R24
(мм)
S
(см)
00 13.06 штиль 0 6000 м {гроза, дождь} 6/3 540 м
[Sc Ac trans]
+24.8 +24.0 95 +34 +34 очень
душно
1000.1 999.7 4
12 13.06 штиль 0 6000 м 5/0 300 м
[As trans]
+34.0 +27.0 67 +52 +53 опасность
перегрева
997.2 996.7 +35.2
18 13.06 штиль 0 6000 м ясно +30.4 +27.0 82 +48 +48 опасность
перегрева
1000.0 999.5
00 14.06 штиль 0 6000 м 4/0
[Ci fib]
+28.8 +28.0 95 +47 +48 опасность
перегрева
998.6 998.2
06 14.06 штиль 0 6000 м 4/4 540 м
[Sc diur, vesp]
+36.0 +30.0 71 +62 +80 опасность
перегрева
999.0 998.5
12 14.06 Ю 1 6000 м {дождь} 5/3 750 м
[Cu med, cong As trans]
+33.3 +28.0 74 +54 +55 опасность
перегрева
996.5 996.0 +37.5 1
15 14.06 штиль 0 6000 м ясно +31.7 +30.0 91 +58 +58 опасность
перегрева
998.9 998.4
18 14.06 штиль 0 6000 м 3/0
[Ac trans]
+30.0 +25.0 75 +43 +43 опасность
перегрева
1000.1 999.6
00 15.06 штиль 0 6000 м 5/3 540 м
[Sc diur, vesp Ac trans Ci fib]
+29.0 +27.0 89 +46 +46 опасность
перегрева
998.5 998.1
03 15.06 Ю 1 6000 м 5/4 540 м
[Sc Ac trans]
+32.2 +29.0 83 +55 +64 опасность
перегрева
999.7 999.3 +27.8
06 15.06 Ю 1 6000 м 8/4 540 м
[Sc As op]
+31.7 +27.0 76 +49 +57 опасность
перегрева
1000.1 999.7
09 15.06 Ю 1 6000 м 6/6 540 м
[Sc diur, vesp]
+32.0 +26.0 71 +48 +54 опасность
перегрева
998.6 998.2
12 15.06 штиль 0 6000 м 8/4 540 м
[Sc As trans]
+30.0 +27.0 84 +47 +48 опасность
перегрева
998.2 997.7 +32.4
15 15.06 Ю 2 6000 м 4/0
[Cs]
+30.0 +27.0 84 +47 +47 опасность
перегрева
999.2 998.8
18 15.06 штиль 0 6000 м 6/0
[Ac As]
+29.4 +27.0 87 +46 +46 опасность
перегрева
999.9 999.5
00 16.06 штиль 0 6000 м 5/0
[Ac und]
+29.4 +27.0 87 +46 +47 опасность
перегрева
998.7 998.3
03 16.06 штиль 0 6000 м 5/5 540 м
[Sc diur, vesp]
+32.5 +29.0 82 +56 +64 опасность
перегрева
999.3 998.9 +29.0
06 16.06 Ю 1 7000 м ясно +35.0 +27.0 63 +53 +81 опасность
перегрева
998.7 998.3
09 16.06 Ю 1 7000 м 4/3 540 м
[Sc Ac trans]
+37.6 +26.0 52 +53 +63 опасность
перегрева
998.3 997.9
12 16.06 Ю 1 7000 м 4/0
[Ac trans]
+33.2 +26.0 66 +49 +50 опасность
перегрева
997.7 997.2 +37.6
15 16.06 Ю 1 6000 м ясно +30.2 +25.0 74 +44 +44 опасность
перегрева
999.7 999.2
18 16.06 Ю 1 6000 м ясно +29.0 +28.0 94 +48 +48 опасность
перегрева
999.9 999.4
00 17.06 штиль 0 6000 м 6/4 540 м
[Sc As trans]
+29.8 +28.0 90 +49 +50 опасность
перегрева
999.4 999.0
03 17.06 штиль 0 6000 м 6/0
[Ac As]
+31.0 +28.0 84 +51 +61 опасность
перегрева
999.9 999.4 +28.7
06 17.06 штиль 0 6000 м 9/4 540 м
[Sc As trans]
+35.0 +27.0 63 +53 +62 опасность
перегрева
998.8 998.3
09 17.06 штиль 0 6000 м 9/4 540 м
[Sc Ac trans]
+35.4 +27.0 62 +53 +59 опасность
перегрева
998.6 998.1
12 17.06 штиль 0 6000 м 9/4 540 м
[Sc As trans]
+35.0 +29.0 71 +58 +59 опасность
перегрева
997.6 997.1 +36.7
15 17.06 Ю 1 6000 м 10/4 540 м
[Sc As op]
+32.3 +29.0 83 +56 +56 опасность
перегрева
999.7 999.2
18 17.06 штиль 0 6000 м ясно +30.8 +29.0 90 +54 +54 опасность
перегрева
1001.0 1000.5
00 18.06 В 1 6000 м 8/4 540 м
[Sc As op]
+30.0 +29.0 94 +52 +52 опасность
перегрева
1000.0 999.5
03 18.06 штиль 0 6000 м 8/4 540 м
[Sc Ci fib]
+29.6 +26.0 81 +44 +53 опасность
перегрева
999.9 999.5 +29.0
06 18.06 штиль 0 6000 м 10/5 540 м
[Sc As trans]
+31.5 +25.0 68 +45 +51 опасность
перегрева
1000.3 999.9
09 18.06 штиль 0 6000 м 8/4 600 м
[Sc As trans]
+32.2 +26.0 70 +48 +54 опасность
перегрева
998.7 998.3
12 18.06 штиль 0 6000 м 8/0
[Ac trans Ci fib]
+31.7 +28.0 81 +52 +53 опасность
перегрева
998.6 998.2 +32.5
15 18.06 штиль 0 6000 м 4/0
[Ac trans]
+30.6 +29.0 91 +53 +53 опасность
перегрева
1000.0 999.5
18 18.06 штиль 0 6000 м 4/0
[Ac trans]
+30.5 +29.0 92 +53 +53 опасность
перегрева
1001.1 1000.7
00 19.06 штиль 0 6000 м 1/0
[Ac trans]
+29.0 +28.0 94 +48 +48 опасность
перегрева
999.3 998.8
03 19.06 штиль 0 6000 м 4/4 540 м
[Sc]
+33.0 +29.0 80 +57 +67 опасность
перегрева
999.8 999.4 +28.5
06 19.06 штиль 0 7000 м 3/3 600 м
[Sc]
+36.0 +28.0 64 +57 +78 опасность
перегрева
999.6 999.1
09 19.06 ЮВ 1 7000 м 3/3 540 м
[Sc]
+37.0 +28.0 60 +57 +69 опасность
перегрева
997.4 997.0
12 19.06 ЮВ 1 6000 м 8/6 540 м
[Cb calv As trans]
+32.0 +26.0 71 +48 +48 опасность
перегрева
998.3 997.8 +37.2
15 19.06 штиль 0 6000 м 8/0
[As op]
+31.0 +26.0 75 +46 +46 опасность
перегрева
1000.9 1000.4
18 19.06 штиль 0 6000 м 5/5 600 м
[Sc diur, vesp]
+29.4 +26.0 82 +44 +44 опасность
перегрева
1001.3 1000.9

 

Местоположение метеостанции Саткхира (Бангладеш): широта 22.72 долгота 89.08 высота над уровнем моря 6 м.

В архиве по умолчанию представлена погода в Саткхире за последнюю неделю. Архивные данные за месяц целиком и за предыдущие месяцы, начиная с января 2011 года, Вы можете получить, выбрав интересующий диапазон дат из раскрывающегося списка и нажав кнопку "Ввод!".


*Определитесь, кто Вы:
робот инопланетянин человек

Внимание! Время в таблицах - всемирное. Для получения местного времени необходимо прибавить поправку, которая равна 6.5 ч.

Смотрите также архив погоды в соседних городах и на ближайших метеорологических станциях:

Погода в Бейсирхэте (Западная Бенгалия, Индия) (23 км)
Погода в Монгле (Бангладеш) (45 км)
Погода в Кхулне (Бангладеш) (47 км)
Погода в Джессоре (Бангладеш) (52 км)
Погода в Колката аэропорту (Западная Бенгалия, Индия) (65 км)
Погода в Каннинге (Западная Бенгалия, Индия) (67 км)
Погода в Багати (Западная Бенгалия, Индия) (78 км)
Погода в Колкате (Западная Бенгалия, Индия) (80 км)
Погода в Гопалгандж-Садаре (Бангладеш) (82 км)
Погода в Кумархали (Бангладеш) (89 км)

Пояснения к столбцам:

Ветер - указаны скорость ветра в м/с - средняя за 10 мин, порывы в срок и между сроками (в фигурных скобках) и направление, откуда дует ветер: С - северный, СВ - северо-восточный, В - восточный, ЮВ - юго-восточный, Ю - южный, ЮЗ - юго-западный, З - западный, СЗ - северо-западный.
Видимость - горизонтальная дальность видимости в метрах или километрах. При видимости от 1 до 10 км при отсутствии осадков обычно наблюдается дымка, при ухудшении видимости до 1 км и менее - туман. В сухую погоду видимость может ухудшаться дымом, пылью или мглою.
Явления - указаны атмосферные явления, наблюдавшиеся в срок или в последний час перед сроком; фигурными скобками обозначены явления, наблюдавшиеся между сроками (за 1-3 часа до срока); квадратными скобками обозначены град или гололедные отложения с указанием их диаметра в мм.
Облачность - указаны через наклонную черту общая и нижняя облачность в баллах и высота нижней границы облаков в метрах; квадратными скобками обозначены формы облаков: Ci - перистые, Cs - перисто-слоистые, Cc - перисто-кучевые, Ac - высококучевые, As - высокослоистые, Sc - слоисто-кучевые, Ns - слоисто-дождевые, Cu - кучевые, Cb - кучево-дождевые. Подробнее классификацию облаков см. в Атласе облаков (PDF).
T - Температура воздуха - температура, измеренная на высоте 2 м над землей.
Td - Температура точки росы - температура, при понижении до которой содержащийся в воздухе водяной пар достигнет насыщения.
f - Относительная влажность воздуха - влажноcть воздуха, измеренная на высоте 2 м над землей.
Te - Эффективная температура - температура, которую ощущает одетый по сезону человек в тени. Характеристика душности погоды. При расчете учитывается влияние влажности воздуха и скорости ветра на теплоощущения человека.
Tes - Эффективная температура на солнце - температура, которую ощущает человек, с поправкой на солнечный нагрев. Характеристика знойности погоды. Зависит от высоты солнца над горизонтом, облачности и скорости ветра. Ночью, в пасмурную погоду, а также при ветре 12 м/с и более поправка равна нулю.
P - Атмосферное давление - приведенное к уровню моря атмосферное давление.
Po - Атмосферное давление - измеренное на уровне метеостанции атмосферное давление.
Tmin - Минимальная температура - минимум температуры воздуха на высоте 2 м над землей.
Tmax - Максимальная температура - максимум температуры воздуха на высоте 2 м над землей.
R - Количество осадков - Количество выпавших осадков за период времени, мм. При наведении курсора мыши на число - период времени, за который выпало указанное количество осадков.
R24 - Количество осадков - Количество выпавших осадков за 24 часа, мм.
S - Снежный покров - Высота снежного покрова, см. При наведении курсора мыши на число - состояние снежного покрова и степень покрытия местности в баллах.